Kingsville, TX

10:41 PM CST on February 20, 2017 (GMT -0600)
Kingsville Naval Air Station

Weather History for KNQI - September, 2013

Change the Weather History Date:

Friday, September 27, 2013

  Actual Average Record
Temperature  
Mean Temperature 84 °F -  
Max Temperature 91 °F 86 °F 102 °F (2011)
Min Temperature 77 °F 66 °F 51 °F (2000)
Cooling Degree Days 19    
Growing Degree Days 34 (Base 50)    
Moisture  
Dew Point 78 °F    
Average Humidity 84    
Maximum Humidity 96    
Minimum Humidity 64    
Precipitation  
Precipitation 0.00 in - - ()
Sea Level Pressure  
Sea Level Pressure 29.83 in    
Wind  
Wind Speed 9 mph (SE)    
Max Wind Speed 20 mph    
Max Gust Speed 26 mph    
Visibility 10 miles    
Events Thunderstorm    
Averages and records for this station are not official NWS values.
T = Trace of Precipitation, MM = Missing Value Source: NWS Daily Summary

Daily Weather History Graph

Daily Weather History Graph

Search for Another Location

Airport or City:

Trip Planner

Search our weather history database for the weather conditions in past years. The results will help you decide how hot, cold, wet, or windy it might be!

Date:

Astronomy

Sep. 27, 2013 Rise Set
Actual Time 7:22 AM CDT 7:21 PM CDT
Civil Twilight 6:58 AM CDT 7:44 PM CDT
Nautical Twilight 6:31 AM CDT 8:11 PM CDT
Astronomical Twilight 6:04 AM CDT 8:39 PM CDT
Moon 12:47 AM CDT (9/27) 2:33 PM CDT (9/27)
Length of Visible Light 12h 45m
Length of Day
11h 59m
Last Quarter, 45% of the Moon is Illuminated
Sep 27
Last Quarter
Oct 4
New
Oct 11
First Quarter
Oct 18
Full
Oct 26
Last Quarter

Hourly Weather History & Observations

Time (CDT) Temp. Heat Index Dew Point Humidity Pressure Visibility Wind Dir Wind Speed Gust Speed Precip Events Conditions
12:56 AM 79.0 °F - 75.9 °F 90% 29.85 in - SSE 5.8 mph - N/A   Clear
1:56 AM 78.1 °F - 75.9 °F 93% 29.85 in - SSE 5.8 mph - N/A   Clear
2:56 AM 77.0 °F - 75.9 °F 96% 29.84 in - SE 4.6 mph - N/A   Clear
3:56 AM 78.1 °F - 75.9 °F 93% 29.83 in - SE 3.5 mph - N/A   Mostly Cloudy
4:56 AM 78.1 °F - 77.0 °F 96% 29.82 in - ESE 3.5 mph - N/A   Mostly Cloudy
5:56 AM 78.1 °F - 77.0 °F 96% 29.82 in - East 4.6 mph - N/A   Scattered Clouds
6:56 AM 78.1 °F - 77.0 °F 96% 29.83 in - North - - N/A   Clear
7:04 AM 78.1 °F - 77.0 °F 96% 29.84 in 10.0 mi SE 3.5 mph - N/A   Scattered Clouds
7:56 AM 80.1 °F 86.7 °F 79.0 °F 96% 29.85 in 10.0 mi SE 4.6 mph - N/A   Scattered Clouds
8:56 AM 82.0 °F 92.8 °F 80.1 °F 94% 29.86 in 10.0 mi SSE 10.4 mph - N/A   Scattered Clouds
9:56 AM 86.0 °F 99.3 °F 79.0 °F 79% 29.86 in 10.0 mi SSE 13.8 mph 19.6 mph N/A   Scattered Clouds
10:56 AM 88.0 °F 103.1 °F 79.0 °F 75% 29.87 in 10.0 mi SE 15.0 mph - N/A   Scattered Clouds
11:56 AM 89.8 °F 105.3 °F 79.0 °F 70% 29.87 in 10.0 mi SSE 16.1 mph 24.2 mph N/A   Mostly Cloudy
12:56 PM 91.9 °F 107.3 °F 78.1 °F 64% 29.85 in 10.0 mi SSE 17.3 mph 24.2 mph N/A   Mostly Cloudy
1:56 PM 91.0 °F 107.6 °F 79.0 °F 68% 29.82 in 10.0 mi SE 16.1 mph 25.3 mph N/A   Mostly Cloudy
2:56 PM 90.0 °F 105.8 °F 79.0 °F 70% 29.80 in 10.0 mi SE 16.1 mph 26.5 mph N/A   Mostly Cloudy
3:56 PM 90.0 °F 105.8 °F 79.0 °F 70% 29.78 in 10.0 mi ESE 19.6 mph - N/A   Mostly Cloudy
4:51 PM 87.8 °F 102.5 °F 78.8 °F 75% 29.80 in 10.0 mi SE 17.3 mph 23.0 mph N/A Thunderstorm Thunderstorm
4:56 PM 87.1 °F 99.8 °F 78.1 °F 74% 29.79 in 10.0 mi SE 15.0 mph - N/A Thunderstorm Thunderstorm
5:25 PM 86.0 °F 98.3 °F 78.1 °F 77% 29.79 in 10.0 mi ESE 17.3 mph - N/A   Mostly Cloudy
5:56 PM 87.1 °F 98.8 °F 77.0 °F 72% 29.79 in 10.0 mi SE 13.8 mph - N/A   Mostly Cloudy
6:56 PM 84.9 °F 97.5 °F 79.0 °F 82% 29.79 in - ESE 10.4 mph 19.6 mph N/A   Clear
7:56 PM 82.9 °F 92.8 °F 78.1 °F 85% 29.81 in - ESE 10.4 mph - N/A   Clear
8:56 PM 82.9 °F 93.8 °F 79.0 °F 88% 29.82 in - SE 12.7 mph - N/A   Clear
9:56 PM 82.9 °F 93.8 °F 79.0 °F 88% 29.84 in - ESE 11.5 mph - N/A   Clear
10:56 PM 82.9 °F 93.8 °F 79.0 °F 88% 29.86 in - SE 11.5 mph - N/A   Partly Cloudy
11:56 PM 82.9 °F 93.8 °F 79.0 °F 88% 29.86 in - SE 10.4 mph - N/A   Clear